This demonstration page uses our WeatherBlox Daily Observations layout. Learn more.

Left ArrowRight Arrow

39.95238, -75.16362

Hourly Observations for May 7, 2016

Temp ( °F °C ) Dew Point ( °F °C ) Humidity (%) Winds ( mph kmh ) Pressure ( in mb ) Visibility ( mi km ) Precip ( " mm )
12:24 am 00:24 Cloudy 51 10.6 47 8.3 86 86 E 10 17 29.77 1008 10 16 0.00 0.00
12:54 am 00:54 Cloudy 51 10.6 47 8.3 86 86 E 10 17 29.77 1008 10 16 0.00 0.00
1:08 am 01:08 Cloudy 51 10.6 47 8.3 86 86 E 12 19 29.77 1008 10 16 0.00 0.00
1:27 am 01:27 Cloudy with Light Rain 52 11 46 8 82 82 E 10 17 29.77 1008 9 14 0.00 0.00
1:37 am 01:37 Cloudy with Light Rain 51 10.6 47 8.3 86 86 E 8 13 29.77 1008 6 10 0.01 0.25
1:48 am 01:48 Cloudy with Light Rain 52 11 46 8 82 82 E 9 15 29.77 1008 7 11 0.01 0.25
1:54 am 01:54 Cloudy with Light Rain 51 10.6 47 8.3 86 86 E 8 13 29.76 1008 7 11 0.02 0.51
2:09 am 02:09 Cloudy with Light Rain 51 10.6 47 8.3 86 86 E 8 13 29.77 1008 10 16 0.00 0.03
2:29 am 02:29 Cloudy with Light Rain 51 10.6 47 8.3 86 86 E 9 15 29.77 1008 10 16 0.00 0.03
2:54 am 02:54 Cloudy with Light Rain 51 10.6 47 8.3 86 86 E 8 13 29.76 1008 10 16 0.01 0.25
3:06 am 03:06 Cloudy with Light Rain 52 11 46 8 82 82 E 10 17 29.77 1008 10 16 0.00 0.00
3:32 am 03:32 Cloudy with Light Rain 51 10.6 47 8.3 86 86 E 10 17 29.77 1008 10 16 0.00 0.03
3:54 am 03:54 Cloudy with Light Rain 51 10.6 47 8.3 86 86 E 8 13 29.76 1008 10 16 0.00 0.03
3:58 am 03:58 Cloudy with Light Rain 52 11 46 8 82 82 E 8 13 29.77 1008 10 16 0.00 0.00
4:21 am 04:21 Cloudy with Light Rain 51 10.6 47 8.3 86 86 E 9 15 29.77 1008 8 13 0.01 0.25
4:54 am 04:54 Cloudy with Light Rain 51 10.6 47 8.3 86 86 E 10 17 29.77 1008 7 11 0.02 0.51
5:35 am 05:35 Cloudy 51 10.6 47 8.3 86 86 E 8 13 29.77 1008 10 16 0.01 0.25
5:54 am 05:54 Cloudy with Light Rain 51 10.6 47 8.3 86 86 ENE 7 11 29.77 1008 10 16 0.01 0.25
6:14 am 06:14 Cloudy with Light Rain 51 10.6 47 8.3 86 86 ENE 7 11 29.77 1008 8 13 0.00 0.03
6:47 am 06:47 Cloudy with Light Rain 51 10.6 47 8.3 86 86 ENE 6 9 29.77 1008 8 13 0.01 0.25
6:54 am 06:54 Cloudy with Light Rain 51 10.6 47 8.3 86 86 ENE 7 11 29.77 1008 7 11 0.01 0.25
7:30 am 07:30 Cloudy with Light Rain 51 10.6 47 8.3 86 86 ENE 7 11 29.77 1008 4 6 0.01 0.25
7:51 am 07:51 Cloudy 52 11 46 8 82 82 ENE 6 9 29.80 1009 9 14 0.01 0.25
7:54 am 07:54 Cloudy 51 10.6 47 8.3 86 86 ENE 6 9 29.79 1009 9 14 0.01 0.25
8:07 am 08:07 Cloudy 51 10.6 47 8.3 86 86 NE 8 13 29.80 1009 10 16 0.00 0.00
8:45 am 08:45 Cloudy 53 11.7 48 8.9 83 83 NE 8 13 29.80 1009 10 16 0.00 0.00
8:54 am 08:54 Cloudy 53 11.7 48 8.9 83 83 ENE 7 11 29.79 1009 10 16 0.00 0.00
9:54 am 09:54 Cloudy 55 12.8 48 8.9 77 77 ENE 7 11 29.79 1009 10 16 0.00 0.00
10:34 am 10:34 Cloudy 55 12.8 47 8.3 74 74 NE 6 9 29.80 1009 10 16 0.00 0.00
10:54 am 10:54 Cloudy 56 13.3 48 8.9 75 75 NE 7 11 29.78 1009 10 16 0.00 0.00
11:45 am 11:45 Cloudy 57 13.9 48 8.9 72 72 ENE 7 11 29.80 1009 10 16 0.00 0.00
11:54 am 11:54 Cloudy 57 13.9 48 8.9 72 72 NE 7 11 29.79 1009 10 16 0.00 0.00
12:41 pm 12:41 Cloudy 58 14.4 48 8.9 70 70 NE 5 7 29.77 1008 10 16 0.00 0.00
12:54 pm 12:54 Cloudy 58 14.4 47 8.3 67 67 ENE 5 7 29.78 1008 10 16 0.00 0.00
1:54 pm 13:54 Mostly Cloudy 62 16.7 49 9.4 62 62 E 6 9 29.76 1008 10 16 0.00 0.00
2:54 pm 14:54 Mostly Cloudy 62 16.7 47 8.3 58 58 E 6 9 29.74 1007 10 16 0.00 0.00
3:54 pm 15:54 Cloudy 60 15.6 46 7.8 60 60 SE 3 6 29.74 1007 10 16 0.00 0.00
4:54 pm 16:54 Cloudy 59 15 47 8.3 64 64 SSW 6 9 29.73 1007 10 16 0.00 0.00
5:54 pm 17:54 Mostly Cloudy 60 15.6 47 8.3 62 62 WSW 7 11 29.74 1007 10 16 0.00 0.00
6:54 pm 18:54 Mostly Cloudy 60 15.6 47 8.3 62 62 SSW 5 7 29.73 1007 10 16 0.00 0.00
7:54 pm 19:54 Mostly Cloudy 58 14.4 48 8.9 70 70 Calm 29.74 1007 10 16 0.00 0.00
8:54 pm 20:54 Mostly Cloudy 57 13.9 48 8.9 72 72 SSW 5 7 29.75 1008 10 16 0.00 0.00
9:54 pm 21:54 Mostly Cloudy 53 11.7 48 8.9 83 83 SSE 5 7 29.75 1008 10 16 0.00 0.00
10:54 pm 22:54 Mostly Cloudy 53 11.7 50 10 89 89 S 7 11 29.74 1007 10 16 0.00 0.00
11:54 pm 23:54 Partly Cloudy 53 11.7 49 9.4 86 86 SW 6 9 29.75 1007 10 16 0.00 0.00

Powered by AerisWeather